TimeEDT,TemperatureF,Dew PointF,Humidity,Sea Level PressureIn,VisibilityMPH,Wind Direction,Wind SpeedMPH,Gust SpeedMPH,PrecipitationIn,Events,Conditions,WindDirDegrees,DateUTC
12:50 AM,35.6,33.8,93,29.73,10.0,North,10.4,-,0.06,Rain,Light Rain,350,2014-03-31 04:50:00
12:52 AM,37.0,33.1,86,29.75,10.0,NNW,9.2,-,0.06,Rain,Light Rain,340,2014-03-31 04:52:00
1:52 AM,35.1,32.0,89,29.77,5.0,NNW,9.2,-,0.09,Rain,Rain,340,2014-03-31 05:52:00
2:52 AM,34.0,30.9,89,29.76,8.0,NNW,12.7,-,0.06,Rain,Light Rain,340,2014-03-31 06:52:00
3:48 AM,33.8,30.2,87,29.74,10.0,NNW,12.7,-,0.07,Rain,Light Rain,340,2014-03-31 07:48:00
3:52 AM,34.0,30.9,89,29.75,10.0,NNW,11.5,-,0.07,Rain,Light Rain,340,2014-03-31 07:52:00
4:06 AM,34.0,30.9,89,29.73,8.0,NNW,11.5,20.7,0.01,Rain,Light Rain,340,2014-03-31 08:06:00
4:52 AM,34.0,30.0,85,29.76,7.0,North,15.0,-,0.07,Rain,Light Rain,350,2014-03-31 08:52:00
5:25 AM,33.1,30.0,89,29.76,6.0,North,9.2,-,0.03,Rain,Light Rain,350,2014-03-31 09:25:00
5:52 AM,33.1,30.0,89,29.77,5.0,North,13.8,24.2,0.09,Rain,Rain,350,2014-03-31 09:52:00
6:12 AM,33.1,30.0,89,29.76,5.0,North,11.5,-,0.06,Rain,Rain,350,2014-03-31 10:12:00
6:23 AM,33.1,28.9,85,29.77,6.0,North,19.6,27.6,0.09,Rain,Rain,10,2014-03-31 10:23:00
6:52 AM,33.1,30.0,89,29.81,4.0,NNW,9.2,-,0.14,Rain,Rain,340,2014-03-31 10:52:00
7:42 AM,32.0,28.0,85,29.81,5.0,North,17.3,28.8,0.14,Rain,Light Freezing Rain,350,2014-03-31 11:42:00
7:52 AM,33.1,28.0,82,29.83,5.0,North,23.0,34.5,0.16,Rain,Light Freezing Rain,350,2014-03-31 11:52:00
8:05 AM,32.0,28.0,85,29.82,7.0,North,16.1,25.3,0.01,Rain,Light Freezing Rain,350,2014-03-31 12:05:00
8:26 AM,32.0,28.0,85,29.83,9.0,North,15.0,33.4,0.03,,Overcast,360,2014-03-31 12:26:00
8:37 AM,32.0,28.0,85,29.83,7.0,North,15.0,24.2,0.04,Rain,Light Freezing Rain,360,2014-03-31 12:37:00
8:45 AM,32.0,28.0,85,29.84,4.0,NNW,15.0,24.2,0.05,Rain,Light Freezing Rain,340,2014-03-31 12:45:00
8:52 AM,32.0,28.0,85,29.86,5.0,NNW,16.1,24.2,0.06,Rain,Light Freezing Rain,340,2014-03-31 12:52:00
9:01 AM,32.0,27.0,82,29.84,8.0,North,18.4,26.5,0.00,Rain,Light Freezing Rain,350,2014-03-31 13:01:00
9:27 AM,32.0,27.0,82,29.86,10.0,NNW,11.5,24.2,0.00,,Overcast,340,2014-03-31 13:27:00
9:52 AM,32.0,27.0,82,29.88,10.0,North,12.7,-,0.00,,Overcast,350,2014-03-31 13:52:00
10:52 AM,32.0,27.0,82,29.89,10.0,NNW,10.4,21.9,N/A,,Overcast,340,2014-03-31 14:52:00
11:52 AM,34.0,28.9,82,29.88,10.0,North,11.5,-,N/A,,Overcast,350,2014-03-31 15:52:00
12:52 PM,36.0,28.9,76,29.88,10.0,North,12.7,21.9,N/A,,Overcast,350,2014-03-31 16:52:00
1:38 PM,39.0,30.0,70,29.86,10.0,North,17.3,25.3,N/A,,Scattered Clouds,350,2014-03-31 17:38:00
1:52 PM,39.0,30.9,73,29.88,10.0,North,19.6,29.9,N/A,,Partly Cloudy,360,2014-03-31 17:52:00
2:28 PM,41.0,32.0,70,29.87,10.0,North,16.1,26.5,N/A,,Mostly Cloudy,350,2014-03-31 18:28:00
2:52 PM,39.9,30.0,68,29.90,10.0,North,19.6,26.5,N/A,,Overcast,350,2014-03-31 18:52:00
3:09 PM,39.9,30.0,68,29.89,10.0,North,12.7,25.3,N/A,,Overcast,350,2014-03-31 19:09:00
3:52 PM,39.0,28.9,67,29.93,10.0,North,17.3,23.0,N/A,,Overcast,360,2014-03-31 19:52:00
4:20 PM,39.0,28.0,65,29.92,10.0,North,15.0,23.0,N/A,,Overcast,360,2014-03-31 20:20:00
4:52 PM,39.0,28.0,65,29.95,10.0,NNW,16.1,24.2,N/A,,Overcast,340,2014-03-31 20:52:00
5:52 PM,37.9,28.9,70,29.96,10.0,NNW,15.0,24.2,N/A,,Overcast,330,2014-03-31 21:52:00
6:52 PM,37.0,26.1,65,30.00,10.0,NNW,19.6,36.8,N/A,,Overcast,340,2014-03-31 22:52:00
7:52 PM,36.0,25.0,64,30.02,10.0,North,16.1,25.3,N/A,,Mostly Cloudy,350,2014-03-31 23:52:00
8:52 PM,37.0,25.0,62,30.04,10.0,NNW,13.8,23.0,N/A,,Overcast,340,2014-04-01 00:52:00
9:52 PM,37.0,25.0,62,30.04,10.0,North,20.7,29.9,N/A,,Overcast,350,2014-04-01 01:52:00
10:52 PM,37.0,25.0,62,30.05,10.0,North,17.3,25.3,N/A,,Overcast,350,2014-04-01 02:52:00
11:52 PM,36.0,24.1,62,30.06,10.0,NNW,15.0,23.0,N/A,,Overcast,340,2014-04-01 03:52:00